TIGER7 KBOS-EGPH

Flight info

Callsign TIGER7
Flight time N/A
Altitude 41000
Route CELTK7 CELTK DCT FRILL DCT BRADD N261B NICSO/M080F400 NATS BEXET/N0464F410 DCT NIBOG DCT MAC/N0433F250 N562 TRN DCT TLA
Aircraft B737/M-SDE2E3FGHIRWXY/LB1

Departure

Time 2026-05-05 00:07
Airport Boston Logan International Airport (KBOS)

Arrival

Time N/A
Airport Edinburgh Airport (EGPH)
Time Latitude Longitude Altitude Speed Heading
2026-05-04 23:41 42.37096 -71.02463 28 ft 0 kts 240°
2026-05-04 23:53 42.37100 -71.02455 28 ft 2 kts 240°
2026-05-04 23:53 42.37107 -71.02438 28 ft 2 kts 240°
2026-05-04 23:53 42.37112 -71.02426 28 ft 1 kts 240°
2026-05-04 23:53 42.37121 -71.02410 28 ft 2 kts 222°
2026-05-04 23:54 42.37133 -71.02399 28 ft 2 kts 208°
2026-05-04 23:54 42.37147 -71.02391 28 ft 2 kts 191°
2026-05-04 23:54 42.37162 -71.02389 28 ft 2 kts 176°
2026-05-04 23:54 42.37177 -71.02393 28 ft 2 kts 160°
2026-05-04 23:55 42.37190 -71.02402 28 ft 2 kts 144°
2026-05-04 23:55 42.37197 -71.02409 28 ft 1 kts 135°
2026-05-04 23:55 42.37201 -71.02415 28 ft 0 kts 135°
2026-05-05 00:00 42.37200 -71.02413 28 ft 1 kts 135°
2026-05-05 00:00 42.37185 -71.02393 28 ft 8 kts 135°
2026-05-05 00:00 42.37141 -71.02269 28 ft 13 kts 73°
2026-05-05 00:00 42.37210 -71.02170 28 ft 15 kts 41°
2026-05-05 00:01 42.37235 -71.02031 28 ft 16 kts 98°
2026-05-05 00:01 42.37280 -71.01897 28 ft 17 kts 41°
2026-05-05 00:01 42.37252 -71.01759 28 ft 21 kts 128°
2026-05-05 00:01 42.37211 -71.01704 28 ft 23 kts 139°
2026-05-05 00:02 42.37101 -71.01561 28 ft 19 kts 135°
2026-05-05 00:02 42.37005 -71.01432 28 ft 20 kts 135°
2026-05-05 00:02 42.36917 -71.01299 28 ft 14 kts 105°
2026-05-05 00:02 42.36932 -71.01181 28 ft 12 kts 70°
2026-05-05 00:03 42.37007 -71.01094 28 ft 16 kts 26°
2026-05-05 00:03 42.37122 -71.01019 28 ft 20 kts 26°
2026-05-05 00:03 42.37252 -71.00935 28 ft 20 kts 26°
2026-05-05 00:03 42.37353 -71.00878 28 ft 17 kts 20°
2026-05-05 00:04 42.37476 -71.00819 28 ft 18 kts 19°
2026-05-05 00:04 42.37588 -71.00765 28 ft 16 kts 20°
2026-05-05 00:04 42.37686 -71.00719 28 ft 13 kts 19°
2026-05-05 00:04 42.37770 -71.00677 28 ft 12 kts 19°
2026-05-05 00:05 42.37838 -71.00626 28 ft 10 kts 64°
2026-05-05 00:05 42.37826 -71.00539 28 ft 8 kts 112°
2026-05-05 00:05 42.37778 -71.00482 28 ft 6 kts 184°
2026-05-05 00:05 42.37757 -71.00487 28 ft 0 kts 198°
2026-05-05 00:06 42.37714 -71.00507 28 ft 21 kts 199°
2026-05-05 00:07 42.37274 -71.00719 30 ft 110 kts 199°
2026-05-05 00:07 42.36505 -71.01090 771 ft 114 kts 195°
2026-05-05 00:07 42.35831 -71.01392 1566 ft 115 kts 198°
2026-05-05 00:07 42.35070 -71.01766 2217 ft 122 kts 203°
2026-05-05 00:08 42.34187 -71.01954 2826 ft 144 kts 178°
2026-05-05 00:08 42.33283 -71.01071 3329 ft 190 kts 128°
2026-05-05 00:08 42.32674 -70.99422 3982 ft 206 kts 126°
2026-05-05 00:08 42.31846 -70.97823 4672 ft 217 kts 136°
2026-05-05 00:09 42.30877 -70.96056 5167 ft 255 kts 121°
2026-05-05 00:09 42.30597 -70.93491 5544 ft 302 kts 80°
2026-05-05 00:09 42.31332 -70.90798 6477 ft 316 kts 64°
2026-05-05 00:09 42.32224 -70.88138 7866 ft 314 kts 67°
2026-05-05 00:10 42.32816 -70.85345 9128 ft 315 kts 81°
2026-05-05 00:10 42.32925 -70.82419 10322 ft 316 kts 93°
2026-05-05 00:10 42.32872 -70.79463 11310 ft 324 kts 90°
2026-05-05 00:10 42.32746 -70.76347 12006 ft 344 kts 97°
2026-05-05 00:11 42.32379 -70.73013 12481 ft 370 kts 100°
2026-05-05 00:11 42.31946 -70.69510 13020 ft 393 kts 100°
2026-05-05 00:11 42.31484 -70.65749 13574 ft 415 kts 100°
2026-05-05 00:11 42.31029 -70.61878 14412 ft 427 kts 98°
2026-05-05 00:12 42.30692 -70.57858 15374 ft 436 kts 96°
2026-05-05 00:12 42.30439 -70.54470 16166 ft 441 kts 96°
2026-05-05 00:12 42.30104 -70.50309 17136 ft 447 kts 96°
2026-05-05 00:12 42.29754 -70.46159 18078 ft 453 kts 96°
2026-05-05 00:13 42.29391 -70.41900 18995 ft 458 kts 96°
2026-05-05 00:13 42.29028 -70.37646 19835 ft 464 kts 96°
2026-05-05 00:13 42.28651 -70.33272 20691 ft 470 kts 97°
2026-05-05 00:13 42.28272 -70.28891 21421 ft 477 kts 97°
2026-05-05 00:14 42.27881 -70.24422 22259 ft 481 kts 97°
2026-05-05 00:14 42.27486 -70.19913 23013 ft 486 kts 96°
2026-05-05 00:14 42.27090 -70.15414 23722 ft 491 kts 96°
2026-05-05 00:14 42.26682 -70.10805 24456 ft 495 kts 96°
2026-05-05 00:15 42.26208 -70.06235 25091 ft 501 kts 98°
2026-05-05 00:15 42.25583 -70.01564 25809 ft 505 kts 99°
2026-05-05 00:15 42.24937 -69.96950 26521 ft 507 kts 98°
2026-05-05 00:15 42.24300 -69.92236 27160 ft 511 kts 97°
2026-05-05 00:16 42.23881 -69.87517 27708 ft 513 kts 90°
2026-05-05 00:16 42.23954 -69.82748 28576 ft 503 kts 79°
2026-05-05 00:16 42.24694 -69.78248 29362 ft 492 kts 66°
2026-05-05 00:16 42.25984 -69.74011 30131 ft 485 kts 59°
2026-05-05 00:17 42.27394 -69.69888 30872 ft 483 kts 59°
2026-05-05 00:17 42.28771 -69.65826 31525 ft 482 kts 59°
2026-05-05 00:17 42.30149 -69.61697 32215 ft 481 kts 59°
2026-05-05 00:17 42.31508 -69.57631 32846 ft 479 kts 59°
2026-05-05 00:18 42.32889 -69.53527 33461 ft 478 kts 58°
2026-05-05 00:18 42.34258 -69.49475 34001 ft 478 kts 58°
2026-05-05 00:18 42.35624 -69.45429 34507 ft 479 kts 59°
2026-05-05 00:18 42.37015 -69.41312 34967 ft 480 kts 59°
2026-05-05 00:19 42.38387 -69.37244 35384 ft 482 kts 59°
2026-05-05 00:19 42.39770 -69.33138 35810 ft 483 kts 61°
2026-05-05 00:19 42.41163 -69.28993 36222 ft 484 kts 61°
2026-05-05 00:19 42.42561 -69.24828 36564 ft 486 kts 62°
2026-05-05 00:20 42.43969 -69.20632 36901 ft 488 kts 62°
2026-05-05 00:20 42.45357 -69.16489 37237 ft 490 kts 62°
2026-05-05 00:20 42.46758 -69.12300 37570 ft 491 kts 63°
2026-05-05 00:20 42.48163 -69.08097 37882 ft 493 kts 63°
2026-05-05 00:21 42.49587 -69.03829 38194 ft 495 kts 63°
2026-05-05 00:21 42.50990 -68.99615 38429 ft 497 kts 63°
2026-05-05 00:21 42.52419 -68.95314 38727 ft 499 kts 64°
2026-05-05 00:21 42.53827 -68.91069 39021 ft 499 kts 64°
2026-05-05 00:22 42.55254 -68.86759 39309 ft 500 kts 64°
2026-05-05 00:22 42.56662 -68.82501 39594 ft 501 kts 64°
2026-05-05 00:22 42.58091 -68.78175 39850 ft 502 kts 64°
2026-05-05 00:22 42.59499 -68.73904 40137 ft 501 kts 64°
2026-05-05 00:23 42.60928 -68.69564 40381 ft 502 kts 64°
2026-05-05 00:23 42.62336 -68.65283 40651 ft 502 kts 64°
2026-05-05 00:23 42.63762 -68.60937 40880 ft 503 kts 64°
2026-05-05 00:24 42.66608 -68.52245 40879 ft 505 kts 64°
2026-05-05 00:24 42.69434 -68.43585 40871 ft 502 kts 64°
2026-05-05 00:25 42.72251 -68.34928 40863 ft 502 kts 65°
2026-05-05 00:25 42.75072 -68.26234 40862 ft 503 kts 65°
2026-05-05 00:26 42.77880 -68.17551 40862 ft 503 kts 65°
2026-05-05 00:26 42.80676 -68.08875 40869 ft 503 kts 65°
2026-05-05 00:27 42.83476 -68.00160 40879 ft 503 kts 65°
2026-05-05 00:27 42.86278 -67.91409 40889 ft 504 kts 65°
2026-05-05 00:28 42.89063 -67.82681 40890 ft 505 kts 65°
2026-05-05 00:28 42.91850 -67.73922 40890 ft 504 kts 65°
2026-05-05 00:29 42.94618 -67.65189 40890 ft 503 kts 65°
2026-05-05 00:29 42.97391 -67.56416 40890 ft 503 kts 65°
2026-05-05 00:30 43.00142 -67.47682 40889 ft 503 kts 65°